TimeMST,TemperatureF,Dew PointF,Humidity,Sea Level PressureIn,VisibilityMPH,Wind Direction,Wind SpeedMPH,Gust SpeedMPH,PrecipitationIn,Events,Conditions,WindDirDegrees,DateUTC
12:53 AM,45.0,30.0,56,30.09,10.0,SW,10.4,-,N/A,,Clear,220,2012-11-07 07:53:00
1:53 AM,43.0,30.0,60,30.08,10.0,WSW,11.5,-,N/A,,Clear,240,2012-11-07 08:53:00
2:53 AM,43.0,30.0,60,30.06,10.0,WSW,12.7,-,N/A,,Clear,240,2012-11-07 09:53:00
3:53 AM,43.0,30.0,60,30.05,10.0,WSW,12.7,-,N/A,,Clear,240,2012-11-07 10:53:00
4:53 AM,42.1,30.0,62,30.07,10.0,West,13.8,-,N/A,,Clear,260,2012-11-07 11:53:00
5:53 AM,43.0,28.9,58,30.06,10.0,WSW,11.5,-,N/A,,Clear,250,2012-11-07 12:53:00
6:53 AM,44.1,28.9,55,30.06,10.0,WSW,12.7,-,N/A,,Clear,250,2012-11-07 13:53:00
7:53 AM,50.0,30.0,46,30.04,10.0,WSW,11.5,-,N/A,,Clear,250,2012-11-07 14:53:00
8:53 AM,55.0,30.9,40,30.02,10.0,WSW,11.5,-,N/A,,Clear,240,2012-11-07 15:53:00
9:53 AM,63.0,30.9,30,29.99,10.0,SW,10.4,-,N/A,,Clear,230,2012-11-07 16:53:00
10:53 AM,70.0,28.0,21,29.94,10.0,SSW,10.4,-,N/A,,Clear,200,2012-11-07 17:53:00
11:53 AM,73.0,25.0,17,29.89,10.0,South,9.2,-,N/A,,Clear,180,2012-11-07 18:53:00
12:53 PM,73.0,21.9,15,29.86,10.0,SSE,10.4,-,N/A,,Clear,160,2012-11-07 19:53:00
1:53 PM,75.0,21.0,13,29.83,10.0,SSW,8.1,18.4,N/A,,Clear,210,2012-11-07 20:53:00
2:53 PM,73.9,21.9,14,29.82,10.0,South,10.4,-,N/A,,Clear,170,2012-11-07 21:53:00
3:53 PM,72.0,21.9,15,29.83,10.0,South,8.1,-,N/A,,Clear,180,2012-11-07 22:53:00
4:53 PM,64.0,23.0,21,29.85,10.0,South,6.9,-,N/A,,Clear,170,2012-11-07 23:53:00
5:53 PM,60.1,24.1,25,29.86,10.0,South,9.2,-,N/A,,Clear,190,2012-11-08 00:53:00
6:53 PM,55.0,24.1,30,29.86,10.0,South,10.4,-,N/A,,Clear,190,2012-11-08 01:53:00
7:53 PM,53.1,25.0,34,29.86,10.0,South,11.5,-,N/A,,Clear,190,2012-11-08 02:53:00
8:53 PM,53.1,27.0,37,29.86,10.0,SSW,11.5,-,N/A,,Clear,200,2012-11-08 03:53:00
9:53 PM,51.1,28.0,41,29.83,10.0,SSW,12.7,-,N/A,,Clear,210,2012-11-08 04:53:00
10:53 PM,51.1,28.9,43,29.80,10.0,SSW,11.5,-,N/A,,Clear,210,2012-11-08 05:53:00
11:53 PM,45.0,28.0,52,29.80,10.0,WSW,15.0,-,N/A,,Clear,250,2012-11-08 06:53:00